DELTA 1 DEB, 21515

Orbit data source: Space-Track

DELTA 1 DEB, 21515 is space debris in SSO originally from a launch on Thu, 12 Jun 1975 UTC launched from the Air Force Western Test Range (AFWTR). Debris objects in space refer to the collection of defunct objects orbiting the Earth. Examples of debris include non-operational satellites, rocket bodies, and fragments generated from explosions, collisions, or faulty payload assembly.

Loading next visibility...
Identifier
21515, 1975-052GL
Orbit
SSO
Country
Flag of USUS
Related business
Manufacturer
Unknown
Mission
Spacecraft
Bus & Motor
Unknown
Mass
Unknown
Launch date (UTC)
1975-06-12 (51 years ago)
Launch vehicle
Unknown
Launch site
Air Force Western Test Range (AFWTR)
Object type
Payload
Rocket body
Debris
Shape & HBR
Unknown shape, 0.1 m
Radar Cross Section
Small (<0.1 m²)

Expand to show TLE details & history
Last TLE update: 1 day ago

TLE from 1 day ago
0 DELTA 1 DEB
1 21515U 75052GL  25348.12753027  .00000053  00000-0  26415-3 0  9991
2 21515  99.7272  52.7733 0272273 292.8425  92.0502 12.98716900638664
Epoch: 2025-12-14T03:03Z
TLE epoch observation values (Epoch: 2025-12-14T03:03:38.615Z)
Latitude
27.60728°
Longitude
-81.29984°
Altitude
1,283.437 km
Speed
7.21 km/s
True Right ascension
03h 10m 37s
True Declination
27° 28' 34"
Sunlit
Object was in full shadow at epoch
Visualization orbit readout
Latitude
Unknown
Longitude
Unknown
Altitude
Unknown
Speed
Unknown
Apparent Right ascension
Unknown
Apparent Declination
Unknown
Sunlit
N/A
Visualization observer readout
Local Sidereal Time
11:47:08
Azimuth
Unknown
Elevation
Unknown
Doppler factor
Unknown
Orbital elements
Apogee altitude
1,472.579 km
Perigee altitude
1,056.402 km
Semi-major axis
7,642.627 km
Eccentricity
0.02723
Inclination
99.7272°
RAAN
52.7733°
Arg. of periapsis
292.8425°
True anomaly
95.1629°
Mean anomaly
92.0502°
Eccentric anomaly
93.60712°
Mean motion
3.24847 °/min
Orbital period
110.82 mins
BSTAR
0.00026415
Loading maneuver chart data...
Computing Atmospheric mass density...

Documentation

Showing up to 5 results
|